Vorticity
nan nan nan nan nan nan nan nan nan nan nan nan nan nan nan nan nan nan nan nan nan nan nan nan nan nan nan nan nan nan nan nan nan nan nan nan nan nan nan nan nan nan nan nan nan nan nan nan nan nan nan nan nan nan nan nan nan nan nan nan nan nan nan nan nan nan nan nan nan
nan 9 9 8 7 7 8 9 9 8 8 8 10 10 9 9 9 9 9 8 9 10 10 11 14 15 16 15 12 10 9 10 11 10 9 9 9 10 9 9 10 10 9 7 5 5 8 7 5 5 7 9 9 9 9 10 11 11 11 9 7 8 8 8 8 8 6 5 nan
nan 10 10 9 7 5 6 8 9 9 6 6 8 9 9 9 10 10 10 10 10 10 10 12 15 15 14 12 10 11 10 10 10 9 9 11 12 11 10 10 10 8 6 5 5 6 9 7 4 5 7 11 11 9 8 9 11 10 9 6 5 7 8 8 7 6 6 6 nan
nan 12 12 12 9 5 3 6 9 8 6 6 8 9 9 9 10 10 11 11 9 9 10 13 14 14 13 12 12 11 12 13 11 9 9 12 13 12 11 10 9 7 6 6 8 8 9 6 4 7 11 13 9 7 7 9 10 8 8 7 7 8 9 8 8 7 7 6 nan
nan 13 12 14 12 6 4 6 8 6 5 6 8 8 8 9 10 11 11 10 10 11 13 14 12 12 13 14 13 11 12 12 10 8 10 13 12 11 11 10 7 6 7 8 9 9 8 5 5 10 12 10 7 8 10 11 8 8 8 8 9 9 10 9 8 8 8 8 nan
nan 12 11 13 12 8 6 9 10 6 5 8 9 7 5 7 10 11 11 10 11 14 15 12 10 11 13 13 11 9 9 9 9 10 11 10 9 10 10 8 7 7 9 10 10 9 6 4 6 10 11 10 10 12 13 10 7 8 8 9 9 10 10 9 8 8 9 12 nan
nan 12 11 12 12 9 7 7 9 8 8 11 12 9 6 6 9 11 10 10 12 12 11 10 11 12 12 11 9 8 8 9 10 11 9 8 10 10 8 6 7 9 10 11 9 7 6 5 7 10 11 9 10 12 12 10 10 10 9 9 8 9 9 9 9 10 11 11 nan
nan 14 12 12 12 11 9 7 7 8 8 10 14 13 11 10 11 10 10 10 12 11 10 12 15 15 13 11 10 9 9 9 9 9 8 9 10 8 7 7 8 9 10 9 8 8 7 6 9 11 10 9 10 11 12 12 12 10 9 8 8 9 10 10 12 13 12 9 nan
nan 15 14 13 12 13 12 10 9 9 9 10 14 15 15 14 13 11 9 10 12 13 12 15 17 15 13 11 10 9 8 8 8 8 9 10 10 7 6 7 9 9 8 8 9 9 7 6 10 11 11 11 12 13 14 12 10 9 7 5 8 10 12 12 14 14 13 10 nan
nan 13 14 14 13 13 13 13 12 11 11 12 15 16 16 16 14 11 10 11 14 14 14 17 17 14 11 9 8 8 8 8 8 9 9 10 9 7 5 8 10 8 8 8 9 8 6 7 11 12 12 12 14 14 13 11 9 8 7 7 10 10 10 11 12 13 12 11 nan
nan 13 14 15 15 15 15 14 13 13 14 16 16 16 16 15 14 13 13 15 15 14 14 16 15 11 8 5 6 7 7 8 10 11 10 10 9 8 7 9 10 9 9 8 6 6 6 10 13 13 11 11 11 11 10 9 8 8 8 11 11 9 7 8 9 10 10 11 nan
nan 15 15 16 16 16 16 14 13 14 15 16 15 14 13 14 14 14 14 14 12 11 11 13 12 8 5 5 7 7 8 10 11 10 10 10 10 9 9 9 10 9 9 6 5 6 10 13 13 12 9 9 8 9 10 9 7 7 8 10 9 8 7 7 8 9 10 11 nan
nan 16 16 16 17 16 15 13 12 13 15 15 13 12 12 14 14 13 12 10 8 8 10 11 9 6 5 7 8 9 11 12 11 10 10 11 10 10 9 9 10 8 6 5 6 9 13 14 13 9 7 7 9 11 11 9 7 7 7 8 8 8 8 7 8 10 11 11 nan
nan 15 15 15 15 15 14 12 11 12 14 13 11 11 11 12 12 10 9 9 8 8 9 8 6 7 10 10 10 12 12 12 12 11 11 11 11 11 10 10 10 6 5 7 11 12 12 12 11 8 7 8 10 11 11 9 9 9 8 8 8 8 8 9 10 10 10 9 nan
nan 13 14 14 14 13 12 10 9 11 12 11 11 11 10 11 11 10 10 10 8 7 7 7 8 11 13 13 12 12 11 11 12 11 11 12 12 12 12 12 9 6 7 10 12 12 12 10 9 8 8 9 9 9 10 10 11 11 11 10 9 9 9 9 9 9 9 8 nan
nan 12 13 13 12 11 10 9 9 10 11 11 12 11 10 10 11 11 11 9 6 7 10 9 9 11 13 14 12 11 10 10 10 10 10 12 12 12 12 11 9 8 8 10 11 11 11 10 9 10 10 9 9 9 10 11 11 11 11 11 10 9 9 9 8 8 8 7 nan
nan 12 12 12 11 10 9 8 9 11 12 12 12 11 10 10 11 12 11 8 7 11 12 10 9 11 12 12 11 9 8 9 9 10 11 12 11 11 11 10 9 8 8 9 10 11 11 11 11 11 10 9 9 9 9 9 10 10 10 9 9 9 8 8 8 8 7 7 nan
nan 12 12 11 11 10 9 9 11 12 12 11 10 10 11 11 12 12 11 10 11 13 13 10 10 12 12 11 9 9 10 11 11 12 13 12 10 9 9 9 8 8 9 10 11 11 11 10 10 10 9 8 9 9 9 8 8 8 8 8 8 8 8 8 8 8 8 8 nan
nan 12 12 11 11 10 10 11 12 12 11 10 11 11 12 12 12 12 12 12 14 14 12 10 11 12 13 11 10 11 12 13 14 13 13 11 9 9 9 9 9 10 11 11 11 10 9 9 8 8 8 8 9 9 8 8 8 8 7 6 7 8 8 8 8 9 9 8 nan
nan 14 13 12 12 12 12 13 13 12 11 11 12 12 11 11 12 13 13 13 14 14 13 12 12 13 13 12 12 12 12 14 16 13 11 11 10 10 10 10 10 10 10 10 10 9 8 8 8 8 8 9 8 8 7 7 7 7 6 6 7 8 8 8 8 9 9 9 nan
nan 15 15 14 14 14 14 14 14 13 12 12 12 11 11 11 13 14 14 14 15 14 13 13 13 13 13 12 12 12 11 13 15 12 11 11 11 10 9 9 9 10 10 10 10 9 9 8 8 8 7 7 6 6 6 6 7 7 6 7 8 8 8 8 8 9 8 8 nan
nan 15 15 16 16 16 16 15 14 13 12 11 11 11 11 12 13 14 15 15 14 13 12 12 13 13 13 12 11 11 11 14 14 13 12 12 11 10 10 10 11 11 10 9 9 8 7 7 7 7 6 5 6 7 7 7 7 6 7 9 9 8 7 8 8 8 8 8 nan
nan 14 15 15 17 17 16 15 14 13 12 11 11 12 12 13 13 14 14 14 13 12 11 10 11 12 12 13 13 12 13 14 14 14 14 13 12 11 11 10 10 9 7 6 7 6 5 4 4 5 5 6 7 7 7 7 7 7 8 8 8 7 7 8 8 8 9 9 nan
nan 16 16 16 16 16 15 15 14 14 13 13 13 13 13 13 12 12 12 13 13 12 11 11 11 11 11 12 13 13 13 13 12 12 12 12 11 10 8 8 7 5 5 9 13 12 9 6 5 5 5 7 7 7 8 9 9 9 9 8 7 7 7 8 9 9 9 9 nan
nan 17 17 17 15 15 15 15 15 15 14 14 14 13 13 12 11 11 11 11 11 12 12 13 11 10 10 10 11 11 11 10 9 9 9 8 9 8 7 6 5 6 9 18 21 16 13 13 12 10 8 7 8 8 9 9 10 9 8 8 7 7 7 8 9 9 9 9 nan
nan 15 15 15 15 15 15 15 15 14 14 14 13 13 12 11 10 11 11 11 11 10 10 10 10 10 10 9 10 10 9 7 8 8 8 7 7 7 7 7 7 10 17 24 18 12 10 13 15 13 11 9 9 8 7 8 9 8 8 7 7 7 8 8 9 9 10 10 nan
nan 14 14 14 14 14 14 13 13 13 13 13 12 12 12 13 13 12 11 10 10 8 7 7 9 8 7 7 9 9 9 9 9 8 8 8 7 7 7 7 9 15 24 24 14 8 7 8 9 10 10 10 9 8 8 9 8 7 7 7 8 9 9 9 10 10 10 11 nan
nan 14 13 13 12 12 12 13 13 12 12 13 12 13 13 14 13 12 10 9 8 6 5 5 6 5 5 8 8 9 9 10 8 8 8 9 8 7 7 9 14 21 26 20 10 6 6 6 5 6 7 9 7 8 8 8 8 7 7 8 9 10 10 11 11 11 11 10 nan
nan 13 12 11 11 11 11 11 12 11 11 11 12 12 12 11 11 10 10 9 8 7 7 7 8 10 11 12 9 8 8 8 8 9 10 10 9 8 9 11 15 20 22 14 6 6 7 6 6 7 7 7 7 8 8 9 9 9 9 9 11 11 12 12 12 11 10 9 nan
nan 12 11 11 10 11 11 11 11 10 10 9 10 10 10 9 9 9 8 8 9 10 12 13 14 15 14 12 9 8 8 8 10 11 11 10 9 9 9 10 14 18 18 12 7 8 8 8 9 8 8 7 7 8 10 11 11 10 10 11 12 13 12 11 11 10 9 8 nan
nan 12 11 10 10 10 11 11 11 11 11 11 10 9 8 8 8 8 8 8 10 12 14 15 15 14 12 11 11 11 11 11 11 11 10 9 7 7 9 12 17 19 19 13 9 9 9 9 9 9 8 5 5 7 11 12 12 12 12 13 13 12 10 9 8 8 8 9 nan
nan 12 11 10 10 10 10 10 10 10 11 11 9 8 8 8 8 8 9 10 11 11 11 11 11 10 10 11 12 12 12 11 11 11 10 8 7 8 11 14 17 19 19 13 9 9 8 8 9 9 8 6 5 8 12 12 11 11 11 11 10 9 9 9 8 8 8 7 nan
nan 11 11 10 10 9 9 9 9 9 9 9 8 8 8 8 8 9 10 10 9 8 8 8 8 8 8 9 10 10 10 9 9 9 9 8 9 11 11 10 13 17 16 10 7 7 7 7 9 9 9 7 5 8 11 11 10 9 9 8 7 7 8 9 9 8 7 7 nan
nan 11 10 10 9 9 9 9 9 9 9 9 9 9 9 9 9 9 9 10 9 8 7 7 8 8 8 9 9 9 9 8 8 7 8 9 11 11 10 9 14 17 14 7 6 6 7 8 10 10 9 5 4 7 9 10 10 9 9 7 7 7 7 9 10 9 9 8 nan
nan 10 10 10 9 9 10 10 10 9 9 9 9 9 9 9 9 10 10 11 10 10 10 10 10 10 10 10 10 10 9 8 7 8 9 10 11 10 10 12 17 18 12 6 6 7 8 9 11 10 6 2 3 6 8 8 7 8 8 7 6 7 7 9 9 10 10 10 nan
nan 10 10 9 10 10 10 10 10 10 9 9 9 9 9 10 10 10 10 9 9 10 11 11 11 11 11 10 9 9 8 7 8 9 10 10 9 8 8 10 13 14 10 7 7 8 9 10 10 7 2 0 5 7 8 6 6 6 7 7 6 6 7 9 10 10 11 11 nan
nan 11 10 10 9 10 10 10 10 9 9 9 8 8 9 9 9 10 10 8 8 9 10 10 11 10 10 10 9 9 9 9 10 9 9 8 7 6 6 8 11 13 11 8 7 8 9 10 8 4 1 2 7 8 8 7 6 6 6 6 6 7 8 9 10 10 10 11 nan
nan 11 11 10 10 10 10 10 10 9 9 9 9 9 9 8 7 8 8 8 8 8 8 9 10 10 9 9 9 9 10 10 10 9 7 6 6 6 7 8 11 13 13 10 7 7 8 9 8 5 2 5 8 7 7 7 7 7 7 7 8 8 10 10 10 10 9 9 nan
nan 12 11 10 10 10 10 10 9 9 8 9 9 9 9 9 9 9 9 9 9 9 9 9 9 9 9 9 8 8 8 9 9 8 7 6 8 10 9 8 10 13 16 13 8 7 7 9 9 6 3 4 7 7 7 7 8 8 8 8 9 9 10 11 10 10 9 5 nan
nan 11 11 11 10 10 10 10 10 9 9 9 9 9 9 10 11 11 10 11 11 10 9 9 9 9 9 8 7 8 7 7 8 9 9 10 11 10 9 7 9 12 16 14 10 7 6 8 8 6 2 3 7 8 8 8 8 8 8 8 9 9 10 10 10 10 9 6 nan
nan nan nan nan nan nan nan nan nan nan nan nan nan nan nan nan nan nan nan nan nan nan nan nan nan nan nan nan nan nan nan nan nan nan nan nan nan nan nan nan nan nan nan nan nan nan nan nan nan nan nan nan nan nan nan nan nan nan nan nan nan nan nan nan nan nan nan nan nan
CAPE
1 91 91 204 219 219 243 276 170 170 168 150 157 80 80 48 30 7 7 nan nan nan nan nan nan nan nan nan nan nan nan nan nan nan nan nan nan nan nan nan nan nan nan nan nan nan nan nan nan nan nan nan nan nan nan nan nan nan nan nan nan nan nan nan nan nan nan nan nan
nan 53 53 134 183 183 199 202 158 158 154 166 145 80 80 54 50 20 20 nan nan nan nan nan nan nan nan nan nan nan nan nan nan nan nan nan nan nan nan nan nan nan nan nan nan nan nan nan nan nan nan nan nan nan nan nan nan nan nan nan nan nan nan nan nan nan nan nan nan
nan 47 47 122 202 202 238 255 188 188 133 119 125 87 87 58 52 28 28 nan nan nan nan nan nan nan nan nan nan nan nan nan nan nan nan nan nan nan nan nan nan nan nan nan nan nan nan nan nan nan nan nan nan nan nan nan nan nan nan nan nan nan nan nan nan nan nan nan nan
nan 35 35 110 143 143 186 323 215 215 132 139 102 83 83 53 42 29 29 nan nan nan nan nan nan nan nan nan nan nan nan nan nan nan nan nan nan nan nan nan nan nan nan nan nan nan nan nan nan nan nan nan nan nan nan nan nan nan nan nan nan nan nan nan nan nan nan nan nan
nan 37 37 123 148 148 230 239 206 206 167 130 104 88 88 46 25 36 36 2 nan nan nan nan nan nan nan nan nan nan nan nan nan nan nan nan nan nan nan nan nan nan nan nan nan nan nan nan nan nan nan nan nan nan nan nan nan nan nan nan nan nan nan nan nan nan nan nan nan
nan 11 11 92 124 124 193 215 152 152 163 132 106 111 111 72 33 30 30 7 nan nan nan nan nan nan nan nan nan nan nan nan nan nan nan nan nan nan nan nan nan nan nan nan nan nan nan nan nan nan nan nan nan nan nan nan nan nan nan nan nan nan nan nan nan nan nan nan nan
nan 0 0 51 99 99 162 172 149 149 112 109 94 125 125 56 16 18 18 nan nan nan nan nan nan nan nan nan nan nan nan nan nan nan nan nan nan nan nan nan nan nan nan nan nan nan nan nan nan nan nan nan nan nan nan nan nan nan nan nan nan nan nan nan nan nan nan nan nan
nan nan nan 24 76 76 119 123 121 121 90 112 142 80 80 17 3 nan nan nan nan nan nan nan nan nan nan nan nan nan nan nan nan nan nan nan nan nan nan nan nan nan nan nan nan nan nan nan nan nan nan nan nan nan nan nan nan nan nan nan nan nan nan nan nan nan nan nan nan
nan nan nan nan 44 44 93 80 62 62 83 109 130 41 41 7 nan nan nan nan nan nan nan nan nan nan nan nan nan nan nan nan nan nan nan nan nan nan nan nan nan nan nan nan nan nan nan nan nan nan nan nan nan nan nan nan nan nan nan nan nan nan nan nan nan nan nan nan nan
nan nan nan nan 3 3 26 24 30 30 72 126 66 3 3 nan nan nan nan nan nan nan nan nan nan nan nan nan nan nan nan nan nan nan nan nan nan nan nan nan nan nan nan nan nan nan nan nan nan nan nan nan nan nan nan nan nan nan nan nan nan nan nan nan nan nan nan nan nan
nan nan nan nan nan nan nan 12 65 65 112 86 3 nan nan nan nan nan nan nan nan nan nan nan nan nan nan nan nan nan nan nan nan nan nan nan nan nan nan nan nan nan nan nan nan nan nan nan nan nan nan nan nan nan nan nan nan nan nan nan nan nan nan nan nan nan nan nan nan
nan nan nan nan nan nan nan 38 119 119 65 10 nan nan nan nan nan nan nan nan nan nan nan nan nan nan nan nan nan nan nan nan nan nan nan nan nan nan nan nan nan nan nan nan nan nan nan nan nan nan nan nan nan nan nan nan nan nan nan nan nan nan nan nan nan nan nan nan nan
nan nan nan nan nan nan nan 38 61 61 10 nan nan nan nan nan nan nan nan nan nan nan nan nan nan nan nan nan nan nan nan nan nan nan nan nan nan nan nan nan nan nan nan nan nan nan nan nan nan nan nan nan nan nan nan nan nan nan nan nan nan nan nan nan nan nan nan nan nan
nan nan nan nan nan nan nan 38 14 14 nan nan nan nan nan nan nan nan nan nan nan nan nan nan nan nan nan nan nan nan nan nan nan nan nan nan nan nan nan nan nan nan nan nan nan nan nan nan nan nan nan nan nan nan nan nan nan nan nan nan nan nan nan nan nan nan nan nan nan
nan nan nan nan nan nan 6 15 nan nan nan nan nan nan nan nan nan nan nan nan nan nan nan nan nan nan nan nan nan nan nan nan nan nan nan nan nan nan nan nan nan nan nan nan nan nan nan nan nan nan nan nan nan nan nan nan nan nan nan nan nan nan nan nan nan nan nan nan nan
nan nan nan nan nan nan 5 nan nan nan nan nan nan nan nan nan nan nan nan nan nan nan nan nan nan nan nan nan nan nan nan nan nan nan nan nan nan nan nan nan nan nan nan nan nan nan nan nan nan nan nan nan nan nan nan nan nan nan nan nan nan nan nan nan nan nan nan nan nan
nan nan nan nan nan nan nan nan nan nan nan nan nan nan nan nan nan nan nan nan nan nan nan nan nan nan nan nan nan nan nan nan nan nan nan nan nan nan nan nan nan nan nan nan nan nan nan nan nan nan nan nan nan nan nan nan nan nan nan nan nan nan nan nan nan nan nan nan nan
nan nan nan nan nan nan nan nan nan nan nan nan nan nan nan nan nan nan nan nan nan nan nan nan nan nan nan nan nan nan nan nan nan nan nan nan nan nan nan nan nan nan nan nan nan nan nan nan nan nan nan nan nan nan nan nan nan nan nan nan nan nan nan nan nan nan nan nan nan
nan nan nan nan nan nan nan nan nan nan nan nan nan nan nan nan nan nan nan nan nan nan nan nan nan nan nan nan nan nan nan nan nan nan nan nan nan nan nan nan nan nan nan nan nan nan nan nan nan nan nan nan nan nan nan nan nan nan nan nan nan nan nan nan nan nan nan nan nan
nan nan nan nan nan nan nan nan nan nan nan nan nan nan nan nan nan nan nan nan nan nan nan nan nan nan nan nan nan nan nan nan nan nan nan nan nan nan nan nan nan nan nan nan nan nan nan nan nan nan nan nan nan nan nan nan nan nan nan nan nan nan nan nan nan nan nan nan nan
nan nan nan nan nan nan nan nan nan nan nan nan nan nan nan nan nan nan nan nan nan nan nan nan nan nan nan nan nan nan nan nan nan nan nan nan nan nan nan nan nan nan nan nan nan nan nan nan nan nan nan nan nan nan nan nan nan nan nan nan nan nan nan nan nan nan nan nan nan
nan nan nan nan nan nan nan nan nan nan nan nan nan nan nan nan nan nan nan nan nan nan nan nan nan nan nan nan nan nan nan nan nan nan nan nan nan nan nan nan nan nan nan nan nan nan nan nan nan nan nan nan nan nan nan nan nan nan nan nan nan nan nan nan nan nan nan nan nan
nan nan nan nan nan nan nan nan nan nan nan nan nan nan nan nan nan nan nan nan nan nan nan nan nan nan nan nan nan nan nan nan nan nan nan nan nan nan nan nan nan nan nan nan nan nan nan nan nan nan nan nan nan nan nan nan nan nan nan nan nan nan nan nan nan nan nan nan nan
nan nan nan nan nan nan nan nan nan nan nan nan nan nan nan nan nan nan nan nan nan nan nan nan nan nan nan nan nan nan nan nan nan nan nan nan nan nan nan nan nan nan nan nan 0 0 0 nan nan nan nan nan nan nan nan nan nan nan nan nan nan nan nan nan nan nan nan nan nan
nan nan nan nan nan nan nan nan nan nan nan nan nan nan nan nan nan nan nan nan nan nan nan nan nan nan nan nan nan nan nan nan nan nan nan nan nan nan nan nan nan nan nan 3 11 11 9 4 1 1 nan nan nan nan nan nan nan nan nan nan nan nan nan nan nan nan nan nan nan
nan nan nan nan nan nan nan nan nan nan nan nan nan nan nan nan nan nan nan nan nan nan nan nan nan nan nan nan nan nan nan nan nan nan nan nan nan nan nan nan nan 0 0 8 14 14 14 11 6 6 1 nan nan nan nan nan nan nan nan nan nan nan nan nan nan nan nan nan nan
nan nan nan nan nan nan nan nan nan nan nan nan nan nan nan nan nan nan nan nan nan nan nan nan nan 1 1 nan nan nan nan nan nan nan nan nan nan nan nan nan nan 0 0 13 17 17 16 14 10 10 3 nan nan nan nan nan nan nan nan nan nan nan nan nan nan nan nan nan nan
nan nan nan nan nan nan nan nan nan nan nan nan nan nan nan nan nan nan nan nan nan nan nan nan nan nan nan nan nan nan nan nan nan nan nan nan nan nan nan nan nan 4 4 18 18 18 16 15 13 13 8 1 nan nan nan nan nan nan nan nan nan nan nan nan nan nan nan nan nan
nan nan nan nan nan nan nan nan nan nan nan nan nan nan nan nan nan nan nan nan nan nan nan nan nan nan nan nan nan nan nan nan nan nan nan nan nan nan nan nan nan 13 13 22 20 20 17 14 13 13 12 4 nan nan nan nan nan nan nan nan nan nan nan nan nan nan nan nan nan
nan nan nan nan nan nan nan nan nan nan nan nan nan nan nan nan nan nan nan nan nan nan nan nan nan nan nan nan nan nan nan nan nan nan nan nan nan nan nan nan nan 14 14 26 22 22 17 16 16 16 14 5 nan nan nan nan nan nan nan nan nan nan nan nan nan nan nan nan nan
nan nan nan nan nan nan nan nan nan nan nan nan nan nan nan nan nan nan nan nan nan 0 0 nan nan nan nan nan nan nan nan nan nan nan nan nan nan nan nan nan 1 15 15 27 23 23 23 19 15 15 9 1 nan nan nan nan nan nan nan nan nan nan nan nan nan nan nan nan nan
nan nan nan nan nan nan nan nan nan nan nan nan nan nan nan nan nan nan nan nan nan nan nan nan nan nan nan nan nan nan nan nan nan nan nan nan nan nan nan nan 2 15 15 28 25 25 24 17 9 9 2 nan nan nan nan nan nan nan nan nan nan nan nan nan nan nan nan nan nan
nan nan nan nan nan nan nan nan nan nan nan nan nan nan nan nan nan nan nan nan nan nan nan nan nan nan nan nan nan nan nan nan nan 0 0 nan nan nan nan nan 1 20 20 28 28 28 21 13 4 4 0 nan nan nan nan nan nan nan nan nan nan nan nan nan nan nan nan nan nan
nan nan nan nan nan nan nan nan nan nan nan nan nan nan nan nan nan nan nan nan nan nan nan nan nan nan nan nan nan nan 0 0 nan nan nan nan nan nan nan nan 2 26 26 29 25 25 17 8 1 1 nan nan nan nan nan nan nan nan nan nan nan nan nan nan nan nan nan nan nan
nan nan nan nan nan nan nan nan nan nan nan nan nan nan nan nan nan nan nan nan 0 nan nan 0 0 0 0 nan nan nan nan 0 nan nan nan nan nan 0 0 0 4 24 24 25 21 21 13 5 0 0 nan nan nan nan nan nan nan nan nan nan nan nan nan nan nan nan nan nan nan
nan nan nan nan nan nan nan nan nan nan nan nan nan nan nan nan nan 0 0 1 0 nan nan 0 nan nan nan nan nan nan nan nan nan nan nan nan nan 0 0 nan 5 21 21 24 19 19 9 1 nan nan nan nan nan nan nan nan nan nan nan nan nan nan nan nan nan nan nan nan nan
nan nan nan nan nan nan nan nan nan nan nan nan nan nan nan 0 0 0 0 nan nan nan nan nan nan nan nan nan nan nan nan nan nan nan nan 0 nan nan nan nan nan 14 14 20 13 13 4 nan nan nan nan nan nan nan nan nan nan nan nan nan nan nan nan nan nan nan nan nan nan
nan nan nan nan nan nan nan nan nan nan nan nan nan nan nan nan nan nan nan nan nan nan nan nan nan nan nan nan nan nan nan nan nan nan nan nan nan nan nan nan nan 1 1 13 8 8 0 nan nan nan nan nan nan nan nan nan nan nan nan nan nan nan nan nan nan nan nan nan nan
nan nan nan nan nan nan nan nan nan nan nan nan nan nan nan nan nan nan nan nan nan nan nan nan nan nan nan nan nan nan nan nan 0 nan nan nan nan nan nan nan nan nan nan 7 4 4 nan nan nan nan nan nan nan nan nan nan nan nan nan nan nan nan nan nan nan nan nan nan nan
nan nan nan nan nan nan nan nan nan nan nan nan nan nan nan nan nan nan nan nan nan nan nan nan nan nan nan nan nan nan nan nan nan nan nan nan nan nan nan nan nan nan nan 5 4 4 1 nan nan nan nan nan nan nan nan nan nan nan nan nan nan nan nan nan nan nan nan nan nan
nan nan nan nan nan nan nan nan nan nan nan nan nan nan nan nan nan nan nan nan nan nan nan nan nan nan nan nan nan nan nan nan nan nan nan nan nan nan nan nan nan nan nan nan 6 6 4 0 nan nan nan nan nan nan nan nan nan nan nan nan nan nan nan nan nan nan nan nan nan